[[{"header":{"parameterUnit":"m.s-1","parameterCategory":1,"la1":30.2991,"la2":30.254,"lo1":-89.0895,"lo2":-89.0444,"dy":0.0017,"dx":0.0017,"nx":28,"ny":28,"refTime":"2025-07-20T21:00:00:Z","depth":0,"parameterNumber":2,"parameterNumberName":"U-component_of_WINDS"},"data":[0,0,0,0,0,0,0,0,0,0,0,0,0,0,0,0,0,0,0,0,0,0,0,0,0,0,0,0,0,0,0,0,0,0,0,0,0,0,0,0,0,0,0,0,0,0,0,0,0,0,0,0,0,0,0,0,0,0,2.1613,2.1614,0,2.1727,2.1728,2.1729,2.1706,2.1703,2.1701,2.1699,2.1824,2.1829,2.1834,0,0,0,0,0,0,0,0,0,0,0,0,0,2.1383,2.1388,2.1613,2.1614,2.1616,2.1727,2.1728,2.173,2.1706,2.1703,2.1701,2.1698,2.1822,2.1828,2.1835,0,0,0,0,0,0,0,0,0,0,0,0,0,2.1489,2.1389,2.1613,2.1617,2.1619,2.1726,2.1728,2.173,2.1706,2.1703,2.17,2.1697,2.182,2.1828,2.1835,2.1948,0,0,2.186,2.1863,0,0,0,0,0,0,0,0,2.1483,2.1497,2.1615,2.1617,2.1619,2.1699,2.1693,2.1804,2.1707,2.1673,2.1699,2.1696,2.1785,2.1796,2.1824,2.1954,2.196,2.186,2.1865,2.1869,2.1871,0,0,0,0,0,0,0,2.1476,2.1492,2.1658,2.1617,2.1619,2.1616,2.1628,2.1714,2.1746,2.1676,2.1675,2.1688,2.1786,2.1817,2.1827,2.1961,2.186,2.1867,2.1872,2.1875,2.2194,2.2197,0,0,0,0,0,0,2.1465,2.1486,2.1655,2.1662,2.1541,2.1623,2.1636,2.1676,2.1745,2.1752,2.1691,2.1686,2.1805,2.1818,2.1831,2.1971,2.1869,2.1876,2.1881,2.219,2.2194,2.2198,0,0,0,0,0,0,2.1461,2.1481,2.165,2.1574,2.1595,2.163,2.1676,2.168,2.1711,2.1756,2.1762,2.1716,2.1803,2.182,2.192,2.1975,2.188,2.1887,2.2186,2.2191,2.2196,2.225,0,0,0,0,0,0,2.1454,2.1479,2.152,2.1575,2.1599,2.1734,2.1679,2.1685,2.1724,2.172,2.1781,2.1789,2.1802,2.1908,2.1928,2.1984,2.1893,2.2181,2.2188,2.2195,2.2243,2.2256,2.2268,0,0,0,0,0,2.1446,2.1532,2.1522,2.1543,2.1651,2.1737,2.1752,2.1763,2.1728,2.1772,2.1801,2.1787,2.1965,2.1918,2.194,2.2,2.2178,2.2186,2.2194,2.2238,2.2254,2.2267,0,0,0,0,0,0,2.1485,2.1539,2.1529,2.1634,2.1681,2.1733,2.1788,2.1779,2.1838,2.1832,2.1845,2.186,2.1962,2.199,2.1937,2.2115,2.2067,2.208,2.2093,2.2108,2.212,2.2113,2.19,0,0,0,0,0,2.1505,2.1569,2.1613,2.1702,2.1725,2.1753,2.1791,2.1795,2.1845,2.1866,2.1902,2.1953,2.2021,2.2066,2.213,2.2246,2.2262,2.2298,2.2311,2.232,2.2333,2.24,2.2418,2.2226,2.2226,2.2225,0,0,2.155,2.1587,2.1626,2.1711,2.1747,2.1816,2.177,2.1843,2.1895,2.1878,2.1974,2.2002,2.2061,2.217,2.222,2.2197,2.2389,2.2331,2.2338,2.2346,2.241,2.2428,2.2445,2.2231,2.223,2.2229,0,0,2.1665,2.1697,2.1777,2.1814,2.187,2.1887,2.1906,2.196,2.1977,2.2073,2.2063,2.2126,2.2241,2.2284,2.2321,2.2454,2.2445,2.2475,2.254,2.2605,2.262,2.2634,2.2685,2.2703,2.2486,2.2486,2.2487,0,2.1714,2.1813,2.1819,2.1894,2.1933,2.1918,2.2001,2.2037,2.2112,2.2141,2.2114,2.226,2.2298,2.2419,2.2451,2.248,2.2506,2.2469,2.2617,2.2631,2.2644,2.2693,2.2711,2.249,2.249,2.2489,2.2489,0,2.1872,2.1941,2.1999,2.207,2.2115,2.2193,2.2214,2.226,2.226,2.2282,2.2382,2.2427,2.2502,2.253,2.2532,2.2652,2.2637,2.2613,2.2566,2.2665,2.2712,2.273,2.2495,2.2494,2.2493,2.2492,0,0,2.2017,2.209,2.2111,2.2144,2.2205,2.226,2.2339,2.241,2.2451,2.2503,2.2572,2.267,2.2649,2.2691,2.2698,2.2755,2.2861,2.2724,2.2726,2.2752,2.3001,2.3021,2.3042,2.2854,2.2857,2.286,2.2997,0,2.2141,2.2277,2.2285,2.2411,2.2477,2.2464,2.2533,2.258,2.2602,2.2664,2.2689,2.276,2.2725,2.2751,2.2806,2.2837,2.2912,2.2826,2.2923,2.2926,2.2912,2.3066,2.3087,2.3214,2.3015,2.3018,2.302,0,2.2303,2.2359,2.249,2.2543,2.2572,2.2633,2.2701,2.2758,2.2812,2.2824,2.2872,2.287,2.2955,2.2902,2.3021,2.2962,2.3002,2.3023,2.3028,2.3041,2.2982,2.3086,2.3255,2.3276,2.3048,2.3046,2.3044,0,2.2401,2.2508,2.2602,2.263,2.2693,2.2738,2.2766,2.2816,2.2859,2.2918,2.2947,2.3016,2.3055,2.311,2.3129,2.3088,2.3248,2.3196,2.3265,2.3265,2.3302,2.33,2.3483,2.3321,2.3321,2.3321,2.332,0,2.254,2.2622,2.2646,2.2704,2.2797,2.2806,2.2899,2.2925,2.297,2.3035,2.3028,2.309,2.3109,2.3175,2.319,2.3289,2.3305,2.3321,2.3325,2.3324,2.3322,2.3352,2.3346,2.3326,2.3325,2.3324,2.3323,0,2.2666,2.2685,2.2786,2.2837,2.2852,2.2918,2.2964,2.3021,2.3041,2.3124,2.3145,2.3178,2.3256,2.3279,2.3373,2.3383,2.35,2.3494,2.3482,2.3483,2.3552,2.3546,2.3764,2.3794,2.3609,2.3611,2.3612,0,2.2755,2.2818,2.2875,2.2917,2.2948,2.3015,2.3059,2.3071,2.3117,2.3183,2.3234,2.331,2.3372,2.3497,2.3532,2.3605,2.3603,2.3674,2.3614,2.3612,2.3609,2.3606,2.3614,2.3687,2.3689,2.369,2.3691,0,2.2913,2.292,2.2981,2.3047,2.3099,2.3152,2.3203,2.3238,2.3258,2.3311,2.3389,2.3437,2.3533,2.361,2.3684,2.3717,2.371,2.3709,2.373,2.3731,2.3723,2.3732,2.3516,2.3705,2.3704,2.3703,2.3702,2.3702,2.3026,2.3083,2.3132,2.3202,2.3241,2.3289,2.3346,2.3373,2.3438,2.3515,2.3519,2.3605,2.3659,2.3757,2.3794,2.3864,2.3843,2.3872,2.388,2.3888,2.3895,2.3709,2.3877,2.3876,2.3876,2.3876,2.3875,0,2.3188,2.3218,2.3282,2.3353,2.3409,2.3393,2.3449,2.3498,2.3573,2.3623,2.3683,2.3775,2.385,2.389,2.3966,2.4014,2.4013,2.4034,2.4033,2.4041,2.3907,2.3884,2.4034,2.4034,2.4034,2.4034,2.4034,2.4034,2.3278,2.3373,2.3386,2.3501,2.3532,2.3615,2.3649,2.3694,2.3734,2.3836,2.3898,2.3922,2.397,2.4049,2.4118,2.4128,2.4159,2.4183,2.4191,2.4066,2.405,2.4035,2.4013,2.4188,2.4188,2.432,2.4321,2.4322]},{"header":{"parameterUnit":"m.s-1","parameterCategory":1,"la1":30.2991,"la2":30.254,"lo1":-89.0895,"lo2":-89.0444,"dy":0.0017,"dx":0.0017,"nx":28,"ny":28,"refTime":"2025-07-20T21:00:00:Z","depth":0,"parameterNumber":3,"parameterNumberName":"V-component_of_WINDS"},"data":[0,0,0,0,0,0,0,0,0,0,0,0,0,0,0,0,0,0,0,0,0,0,0,0,0,0,0,0,0,0,0,0,0,0,0,0,0,0,0,0,0,0,0,0,0,0,0,0,0,0,0,0,0,0,0,0,0,0,0.9193,0.9193,0,0.9212,0.9212,0.9212,0.9154,0.9152,0.915,0.9148,0.917,0.9172,0.9174,0,0,0,0,0,0,0,0,0,0,0,0,0,0.9105,0.9106,0.9193,0.9193,0.9193,0.9212,0.9212,0.9212,0.9154,0.9152,0.915,0.9148,0.9169,0.9172,0.9174,0,0,0,0,0,0,0,0,0,0,0,0,0,0.9135,0.9107,0.9193,0.9166,0.9164,0.9212,0.9212,0.9213,0.9155,0.9152,0.9149,0.9147,0.9168,0.9171,0.9175,0.9249,0,0,0.9185,0.9186,0,0,0,0,0,0,0,0,0.9134,0.9139,0.917,0.9168,0.9166,0.9178,0.9189,0.9225,0.9155,0.9158,0.9148,0.9145,0.9175,0.9177,0.9187,0.925,0.9251,0.9185,0.9187,0.9189,0.919,0,0,0,0,0,0,0,0.9132,0.9137,0.92,0.917,0.9168,0.9153,0.9155,0.9195,0.9181,0.9158,0.9154,0.9157,0.9173,0.9184,0.9187,0.9252,0.9185,0.9188,0.919,0.9192,0.9373,0.9376,0,0,0,0,0,0,0.9133,0.9136,0.92,0.9201,0.9143,0.9157,0.9158,0.9177,0.9181,0.9179,0.9159,0.9154,0.9179,0.9183,0.9188,0.9271,0.9189,0.9192,0.9194,0.937,0.9374,0.9377,0,0,0,0,0,0,0.9131,0.9139,0.9199,0.9167,0.9174,0.9161,0.9182,0.9178,0.9189,0.9182,0.9179,0.9172,0.9177,0.9183,0.9233,0.9272,0.9193,0.9196,0.9367,0.9371,0.9375,0.9443,0,0,0,0,0,0,0.9129,0.9139,0.9167,0.9168,0.9176,0.9245,0.9185,0.9181,0.9195,0.9188,0.9194,0.9192,0.9176,0.9229,0.9237,0.9275,0.9199,0.9363,0.9369,0.9374,0.9437,0.9449,0.9459,0,0,0,0,0,0.9126,0.9187,0.9169,0.9177,0.9211,0.9247,0.9251,0.9231,0.9198,0.9226,0.9221,0.9192,0.9267,0.9234,0.9243,0.9283,0.9361,0.9367,0.9373,0.9432,0.9446,0.9458,0,0,0,0,0,0,0.9192,0.9187,0.9167,0.923,0.9239,0.9237,0.9272,0.9248,0.9267,0.926,0.9235,0.9236,0.9291,0.9292,0.9256,0.9353,0.9308,0.9316,0.935,0.9363,0.9374,0.9371,0.9202,0,0,0,0,0,0.9214,0.9244,0.9238,0.9294,0.9299,0.9285,0.93,0.9283,0.9292,0.9296,0.9295,0.9305,0.933,0.9347,0.937,0.9438,0.9436,0.9469,0.948,0.9489,0.9495,0.9527,0.954,0.9397,0.9397,0.9397,0,0,0.926,0.9261,0.9281,0.9307,0.9312,0.9342,0.9289,0.9324,0.9346,0.9302,0.9348,0.9347,0.9357,0.9415,0.944,0.9417,0.9535,0.9497,0.9504,0.9506,0.9535,0.9548,0.956,0.9401,0.9401,0.94,0,0,0.9358,0.9363,0.9408,0.9413,0.9421,0.9411,0.9422,0.9423,0.942,0.9466,0.9432,0.9458,0.9504,0.951,0.9519,0.9617,0.9589,0.9625,0.9681,0.9712,0.9724,0.9733,0.9764,0.9776,0.9633,0.9633,0.9633,0,0.9413,0.9457,0.9434,0.947,0.9481,0.9442,0.9486,0.9493,0.9509,0.9517,0.9492,0.9545,0.9549,0.9606,0.9629,0.964,0.9649,0.9623,0.9724,0.9733,0.9742,0.9771,0.9784,0.9637,0.9636,0.9636,0.9636,0,0.9523,0.9554,0.959,0.9603,0.9619,0.966,0.9642,0.966,0.9642,0.9634,0.968,0.9683,0.9704,0.9717,0.9701,0.9771,0.9756,0.9728,0.9682,0.976,0.9787,0.9798,0.9643,0.9641,0.964,0.9639,0,0,0.9663,0.9661,0.9674,0.9678,0.9683,0.9706,0.9744,0.9764,0.9778,0.9791,0.982,0.9858,0.9831,0.9841,0.9825,0.9853,0.9925,0.9821,0.9821,0.9837,0.9999,1.0017,1.0031,0.9908,0.991,0.9912,0.9996,0,0.9756,0.9819,0.9798,0.9862,0.9888,0.985,0.9882,0.9888,0.9882,0.9903,0.9896,0.9922,0.9886,0.9891,0.9918,0.9911,0.9957,0.9905,0.9933,0.9934,0.9928,1.0045,1.0066,1.0145,1.0007,1.0009,1.001,0,0.9872,0.9886,0.9952,0.9948,0.9958,0.9988,1.0002,1.0024,1.0029,1.0022,1.0033,1.001,1.0046,1.0002,1.0049,1.0014,1.0025,1.0023,1.0026,1.0025,0.9975,1.0044,1.0171,1.0181,1.0028,1.0026,1.0025,0,0.9962,0.9998,1.004,1.0046,1.0044,1.0065,1.0065,1.0068,1.008,1.0093,1.01,1.0118,1.0127,1.0141,1.0123,1.0093,1.0172,1.0127,1.0165,1.0166,1.0181,1.018,1.0307,1.0194,1.0194,1.0194,1.0194,0,1.0066,1.0107,1.008,1.0106,1.015,1.0126,1.017,1.0166,1.0168,1.0192,1.0162,1.0185,1.0162,1.0183,1.017,1.0209,1.0214,1.0208,1.0204,1.0209,1.0209,1.0213,1.0206,1.0197,1.0196,1.0196,1.0195,0,1.0173,1.0157,1.02,1.0194,1.0194,1.0226,1.022,1.0244,1.0235,1.0265,1.0271,1.0257,1.0279,1.0263,1.0287,1.0278,1.0328,1.0318,1.0325,1.0321,1.0359,1.0354,1.049,1.0505,1.0386,1.0387,1.0388,0,1.0238,1.0268,1.0264,1.0277,1.0279,1.0301,1.0312,1.029,1.0302,1.0309,1.0331,1.0351,1.0365,1.0403,1.0394,1.0411,1.0399,1.0445,1.0401,1.0404,1.0395,1.0391,1.0393,1.0453,1.0455,1.0456,1.0457,0,1.0354,1.0344,1.0361,1.0374,1.0387,1.0397,1.0405,1.0418,1.0395,1.0411,1.0432,1.0443,1.0465,1.0484,1.0498,1.0498,1.0473,1.0471,1.048,1.0484,1.0486,1.0481,1.0346,1.0467,1.0466,1.0466,1.0465,1.0465,1.044,1.0462,1.0462,1.0481,1.0484,1.0491,1.0511,1.0503,1.0521,1.0536,1.0522,1.0547,1.055,1.0565,1.0568,1.0587,1.0568,1.0582,1.0585,1.0587,1.0591,1.0485,1.059,1.059,1.0589,1.0589,1.0589,0,1.055,1.0548,1.0565,1.0575,1.0589,1.0564,1.0571,1.0584,1.0606,1.061,1.0624,1.0647,1.0665,1.0658,1.0673,1.0689,1.0678,1.0694,1.0691,1.069,1.0609,1.0598,1.0702,1.0702,1.0702,1.0702,1.0702,1.0702,1.061,1.0646,1.0635,1.0672,1.067,1.0693,1.0698,1.0703,1.0706,1.0733,1.0747,1.0741,1.074,1.0755,1.0769,1.0767,1.0772,1.0791,1.0784,1.0708,1.0697,1.0686,1.0675,1.0794,1.0794,1.0863,1.0864,1.0864]}]]